| time (UTC) | temp F | wind direction | speed knots | gust knots | rain 1hr in | rain 24hr in | rain mn in | humidity % | barometer mb |
| 20260505014604 | 51 | 10 | 1.7 | 2.6 | 0.00 | 0.00 | 0.00 | 53 | 1008.0 |
| 20260505014104 | 52 | 10 | 0.9 | 2.6 | 0.00 | 0.00 | 0.00 | 52 | 1008.1 |
| 20260505013604 | 52 | 9 | 0.9 | 1.7 | 0.00 | 0.00 | 0.00 | 51 | 1008.1 |
| 20260505013104 | 52 | 5 | 0.0 | 1.7 | 0.00 | 0.00 | 0.00 | 51 | 1008.1 |
| 20260505010604 | 52 | 13 | 1.7 | 2.6 | 0.00 | 0.00 | 0.00 | 49 | 1008.3 |
| 20260505004604 | 52 | 14 | 2.6 | 4.3 | 0.00 | 0.00 | 0.00 | 49 | 1008.6 |
| 20260505004104 | 52 | 15 | 0.9 | 4.3 | 0.00 | 0.00 | 0.00 | 49 | 1008.6 |
| 20260505003604 | 52 | 14 | 1.7 | 6.1 | 0.00 | 0.00 | 0.00 | 49 | 1008.6 |
| 20260505003104 | 52 | 13 | 0.9 | 5.2 | 0.00 | 0.00 | 0.00 | 49 | 1008.7 |
| 20260505001604 | 52 | 13 | 0.9 | 2.6 | 0.00 | 0.00 | 0.00 | 51 | 1008.8 |
| 20260505001104 | 52 | 14 | 2.6 | 5.2 | 0.00 | 0.00 | 0.00 | 49 | 1008.8 |
| 20260505000104 | 52 | 13 | 2.6 | 6.1 | 0.00 | 0.00 | 0.00 | 50 | 1009.0 |
| 20260504234104 | 52 | 14 | 1.7 | 5.2 | 0.00 | 0.00 | 0.00 | 52 | 1009.1 |
| 20260504233604 | 52 | 13 | 2.6 | 7.8 | 0.00 | 0.00 | 0.00 | 52 | 1009.0 |
| 20260504233104 | 52 | 14 | 0.9 | 8.7 | 0.00 | 0.00 | 0.00 | 52 | 1008.9 |
| 20260504231604 | 52 | 13 | 3.5 | 7.8 | 0.00 | 0.00 | 0.00 | 50 | 1008.8 |
| 20260504231104 | 53 | 13 | 1.7 | 10.4 | 0.00 | 0.00 | 0.00 | 50 | 1008.6 |
| 20260504230104 | 54 | 12 | 3.5 | 10.4 | 0.00 | 0.00 | 0.00 | 44 | 1008.4 |
| 20260504224604 | 55 | 11 | 2.6 | 7.8 | 0.00 | 0.00 | 0.00 | 39 | 1008.1 |
| 20260504224104 | 55 | 13 | 2.6 | 4.3 | 0.00 | 0.00 | 0.00 | 41 | 1008.3 |
| 20260504223604 | 55 | 13 | 1.7 | 2.6 | 0.00 | 0.00 | 0.00 | 41 | 1008.0 |
| 20260504223105 | 55 | 11 | 0.0 | 6.1 | 0.00 | 0.00 | 0.00 | 40 | 1007.9 |
| 20260504221605 | 56 | 10 | 5.2 | 7.0 | 0.00 | 0.00 | 0.00 | 41 | 1007.8 |
| 20260504221106 | 55 | 9 | 4.3 | 10.4 | 0.00 | 0.00 | 0.00 | 40 | 1007.8 |
| 20260504220105 | 55 | 11 | 2.6 | 8.7 | 0.00 | 0.00 | 0.00 | 40 | 1008.0 |
| 20260504214605 | 55 | 11 | 6.1 | 11.3 | 0.00 | 0.00 | 0.00 | 41 | 1008.1 |
| 20260504214105 | 55 | 11 | 4.3 | 8.7 | 0.00 | 0.00 | 0.00 | 43 | 1008.1 |
| 20260504213605 | 54 | 11 | 4.3 | 8.7 | 0.00 | 0.00 | 0.00 | 43 | 1008.2 |
| 20260504213105 | 54 | 9 | 4.3 | 13.9 | 0.00 | 0.00 | 0.00 | 43 | 1008.2 |
| 20260504211105 | 54 | 11 | 7.8 | 13.9 | 0.00 | 0.00 | 0.00 | 45 | 1008.3 |
| 20260504210605 | 54 | 11 | 6.1 | 12.2 | 0.00 | 0.00 | 0.00 | 45 | 1008.3 |
| 20260504210105 | 54 | 11 | 5.2 | 19.1 | 0.00 | 0.00 | 0.00 | 45 | 1008.3 |
| 20260504204604 | 58 | 11 | 11.3 | 17.4 | 0.00 | 0.00 | 0.00 | 35 | 1008.1 |
| 20260504204105 | 61 | 9 | 3.5 | 7.0 | 0.00 | 0.00 | 0.00 | 25 | 1008.1 |
| 20260504203605 | 62 | 11 | 1.7 | 7.8 | 0.00 | 0.00 | 0.00 | 26 | 1008.2 |
| 20260504201605 | 62 | 13 | 5.2 | 12.2 | 0.00 | 0.00 | 0.00 | 29 | 1008.2 |
| 20260504201105 | 61 | 12 | 7.0 | 10.4 | 0.00 | 0.00 | 0.00 | 31 | 1008.1 |
| 20260504200604 | 61 | 13 | 3.5 | 8.7 | 0.00 | 0.00 | 0.00 | 35 | 1008.3 |
| 20260504200105 | 61 | 14 | 4.3 | 13.0 | 0.00 | 0.00 | 0.00 | 35 | 1008.4 |
| 20260504194605 | 59 | 12 | 5.2 | 10.4 | 0.00 | 0.00 | 0.00 | 30 | 1008.5 |
| 20260504193604 | 61 | 14 | 5.2 | 13.0 | 0.00 | 0.00 | 0.00 | 28 | 1008.5 |
| 20260504193104 | 62 | 13 | 2.6 | 11.3 | 0.00 | 0.00 | 0.00 | 25 | 1008.3 |
| 20260504191605 | 61 | 10 | 1.7 | 5.2 | 0.00 | 0.00 | 0.00 | 29 | 1008.4 |
| 20260504191105 | 60 | 13 | 1.7 | 7.8 | 0.00 | 0.00 | 0.00 | 31 | 1008.5 |
| 20260504190605 | 59 | 9 | 4.3 | 7.8 | 0.00 | 0.00 | 0.00 | 30 | 1008.5 |
| 20260504190105 | 58 | 10 | 1.7 | 10.4 | 0.00 | 0.00 | 0.00 | 31 | 1008.7 |
| 20260504184605 | 60 | 13 | 4.3 | 11.3 | 0.00 | 0.00 | 0.00 | 30 | 1008.8 |
| 20260504181604 | 62 | 341 | 4.3 | 11.3 | 0.00 | 0.00 | 0.00 | 28 | 1008.7 |
| 20260504181104 | 63 | 279 | 4.3 | 10.4 | 0.00 | 0.00 | 0.00 | 28 | 1008.8 |
| 20260504180604 | 62 | 191 | 4.3 | 8.7 | 0.00 | 0.00 | 0.00 | 28 | 1008.8 |
| 20260504180105 | 62 | 12 | 3.5 | 8.7 | 0.00 | 0.00 | 0.00 | 28 | 1008.8 |
| 20260504174605 | 62 | 13 | 5.2 | 10.4 | 0.00 | 0.00 | 0.00 | 29 | 1008.9 |
| 20260504174105 | 61 | 16 | 2.6 | 6.1 | 0.00 | 0.00 | 0.00 | 29 | 1009.0 |
| 20260504173605 | 62 | 13 | 2.6 | 8.7 | 0.00 | 0.00 | 0.00 | 30 | 1009.2 |
| 20260504173105 | 62 | 14 | 5.2 | 8.7 | 0.00 | 0.00 | 0.00 | 29 | 1009.2 |
| 20260504171605 | 61 | 13 | 2.6 | 7.0 | 0.00 | 0.00 | 0.00 | 30 | 1009.4 |
| 20260504171105 | 60 | 14 | 4.3 | 7.8 | 0.00 | 0.00 | 0.00 | 31 | 1009.4 |
| 20260504170104 | 59 | 18 | 2.6 | 6.1 | 0.00 | 0.00 | 0.00 | 34 | 1009.6 |
| 20260504160105 | 57 | 14 | 2.6 | 6.1 | 0.00 | 0.00 | 0.00 | 37 | 1009.9 |
| 20260504151105 | 52 | 12 | 2.6 | 4.3 | 0.00 | 0.00 | 0.00 | 40 | 1010.3 |
| 20260504150605 | 52 | 11 | 2.6 | 5.2 | 0.00 | 0.00 | 0.00 | 40 | 1010.2 |
| 20260504150105 | 52 | 11 | 2.6 | 5.2 | 0.00 | 0.00 | 0.00 | 42 | 1010.2 |
| 20260504141105 | 46 | 10 | 2.6 | 6.1 | 0.00 | 0.00 | 0.00 | 43 | 1010.4 |
| 20260504140104 | 45 | 11 | 1.7 | 5.2 | 0.00 | 0.00 | 0.00 | 50 | 1010.4 |
| 20260504130604 | 41 | 14 | 0.0 | 0.9 | 0.00 | 0.00 | 0.00 | 53 | 1010.9 |
| 20260504130104 | 41 | 14 | 0.0 | 1.7 | 0.00 | 0.00 | 0.00 | 53 | 1010.9 |
| 20260504110604 | 42 | 11 | 0.0 | 0.9 | 0.00 | 0.00 | 0.00 | 50 | 1010.6 |
| 20260504110104 | 42 | 11 | 0.9 | 2.6 | 0.00 | 0.00 | 0.00 | 47 | 1010.6 |
| 20260504100604 | 41 | 12 | 0.0 | 0.9 | 0.00 | 0.00 | 0.00 | 48 | 1010.7 |
| 20260504100104 | 41 | 12 | 0.0 | 4.3 | 0.00 | 0.00 | 0.00 | 48 | 1010.7 |
| 20260504090105 | 45 | 9 | 5.2 | 12.2 | 0.00 | 0.00 | 0.00 | 37 | 1010.1 |
| 20260504081604 | 45 | 10 | 7.8 | 13.0 | 0.00 | 0.00 | 0.00 | 37 | 1010.7 |
| 20260504080604 | 45 | 9 | 7.0 | 10.4 | 0.00 | 0.00 | 0.00 | 36 | 1010.8 |
| 20260504080104 | 45 | 10 | 6.1 | 12.2 | 0.00 | 0.00 | 0.00 | 36 | 1010.9 |
| 20260504070104 | 45 | 10 | 8.7 | 13.9 | 0.00 | 0.00 | 0.00 | 37 | 1011.3 |
| 20260504060104 | 45 | 9 | 7.8 | 13.0 | 0.00 | 0.00 | 0.00 | 37 | 1011.7 |
| 20260504050604 | 48 | 9 | 4.3 | 7.0 | 0.00 | 0.00 | 0.00 | 35 | 1011.9 |
| 20260504050104 | 48 | 10 | 5.2 | 10.4 | 0.00 | 0.00 | 0.00 | 34 | 1011.9 |
| 20260504044106 | 49 | 9 | 5.2 | 10.4 | 0.00 | 0.00 | 0.00 | 34 | 1012.1 |
| 20260504043605 | 49 | 9 | 7.0 | 11.3 | 0.00 | 0.00 | 0.00 | 33 | 1012.1 |
| 20260504043104 | 49 | 10 | 7.8 | 11.3 | 0.00 | 0.00 | 0.00 | 33 | 1012.1 |
| 20260504041604 | 50 | 9 | 5.2 | 8.7 | 0.00 | 0.00 | 0.00 | 33 | 1012.1 |
| 20260504041104 | 50 | 10 | 6.1 | 10.4 | 0.00 | 0.00 | 0.00 | 33 | 1012.1 |
| 20260504040604 | 50 | 10 | 8.7 | 13.0 | 0.00 | 0.00 | 0.00 | 32 | 1012.1 |
| 20260504040105 | 50 | 10 | 3.5 | 7.8 | 0.00 | 0.00 | 0.00 | 34 | 1012.1 |
| 20260504034605 | 51 | 10 | 7.0 | 10.4 | 0.00 | 0.00 | 0.00 | 32 | 1012.0 |
| 20260504034105 | 51 | 10 | 7.8 | 11.3 | 0.00 | 0.00 | 0.00 | 32 | 1012.0 |
| 20260504033604 | 51 | 10 | 2.6 | 4.3 | 0.00 | 0.00 | 0.00 | 32 | 1012.0 |
| 20260504033104 | 51 | 9 | 1.7 | 4.3 | 0.00 | 0.00 | 0.00 | 33 | 1012.0 |
| 20260504031605 | 51 | 9 | 1.7 | 2.6 | 0.00 | 0.00 | 0.00 | 32 | 1011.9 |
| 20260504031104 | 51 | 9 | 1.7 | 2.6 | 0.00 | 0.00 | 0.00 | 32 | 1011.9 |
| 20260504030604 | 52 | 10 | 2.6 | 5.2 | 0.00 | 0.00 | 0.00 | 32 | 1011.9 |
| 20260504030104 | 52 | 9 | 2.6 | 6.1 | 0.00 | 0.00 | 0.00 | 33 | 1011.8 |
| 20260504024604 | 54 | 9 | 1.7 | 2.6 | 0.00 | 0.00 | 0.00 | 29 | 1011.9 |
| 20260504024104 | 54 | 15 | 0.9 | 1.7 | 0.00 | 0.00 | 0.00 | 29 | 1011.8 |
| 20260504023604 | 54 | 15 | 0.0 | 1.7 | 0.00 | 0.00 | 0.00 | 29 | 1011.8 |
| 20260504023104 | 55 | 15 | 0.9 | 2.6 | 0.00 | 0.00 | 0.00 | 30 | 1011.8 |
| 20260504021104 | 56 | 6 | 1.7 | 2.6 | 0.00 | 0.00 | 0.00 | 25 | 1011.7 |
| 20260504020604 | 57 | 7 | 2.6 | 2.6 | 0.00 | 0.00 | 0.00 | 23 | 1011.8 |